This is the latest recevied weather packets stored in our database for station/object IW8PDD-3. If no packets are shown the sender has not sent any weather packets the latest 10 day(s).
| Time | Temp. | Humidity | Pressure | Rain* | Wind** | Luminosity | Snow |
|---|---|---|---|---|---|---|---|
| 1778020791 | 17.78° C | 70% | 1016.8 hPa | - | - | - | - |
| 1778019588 | 17.78° C | 70% | 1017 hPa | - | - | - | - |
| 1778017181 | 18.33° C | 69% | 1017.1 hPa | - | - | - | - |
| 1778015977 | 17.78° C | 69% | 1017.2 hPa | - | - | - | - |
| 1778014774 | 18.33° C | 68% | 1017.3 hPa | - | - | - | - |
| 1778013570 | 18.33° C | 68% | 1017.4 hPa | - | - | - | - |
| 1778012367 | 18.33° C | 68% | 1017.3 hPa | - | - | - | - |
| 1778011163 | 18.33° C | 68% | 1017.6 hPa | - | - | - | - |
| 1778009960 | 18.33° C | 68% | 1017.6 hPa | - | - | - | - |
| 1778008757 | 18.33° C | 67% | 1017.5 hPa | - | - | - | - |
| 1778007553 | 18.33° C | 67% | 1017.2 hPa | - | - | - | - |
| 1778006350 | 18.33° C | 67% | 1017.4 hPa | - | - | - | - |
| 1778005146 | 18.33° C | 67% | 1017.3 hPa | - | - | - | - |
| 1778003942 | 18.33° C | 66% | 1017.1 hPa | - | - | - | - |
| 1778002739 | 18.89° C | 65% | 1017 hPa | - | - | - | - |
| 1778001536 | 18.89° C | 65% | 1017 hPa | - | - | - | - |
| 1778000332 | 18.89° C | 64% | 1017.1 hPa | - | - | - | - |
| 1777999129 | 20° C | 62% | 1017.1 hPa | - | - | - | - |
| 1777997925 | 20° C | 62% | 1017.2 hPa | - | - | - | - |
| 1777996722 | 20° C | 61% | 1017.1 hPa | - | - | - | - |
| 1777994315 | 22.78° C | 58% | 1016.7 hPa | - | - | - | - |
| 1777993111 | 21.11° C | 59% | 1017 hPa | - | - | - | - |
| 1777991908 | 21.67° C | 57% | 1017.1 hPa | - | - | - | - |
| 1777990704 | 22.78° C | 56% | 1017.1 hPa | - | - | - | - |
| 1777989501 | 25.56° C | 54% | 1017.1 hPa | - | - | - | - |
* Rain since midnight (hover to see other rain measurements)
** Current wind speed in m/s (hover to see current wind gust speed)